Preview of NWS' New Version of Forecast
This preview is not operational and should not be used for support decisions.

Regional Weather Roundup (RWR)

Issued by National Weather Service (NWS)

                            
000
ASUS46 KSEW 221210
RWRWA 

WASHINGTON REGIONAL WEATHER ROUNDUP
NATIONAL WEATHER SERVICE SEATTLE WA
500 AM PDT MON APR 22 2019

NOTE:"FAIR" INDICATES FEW OR NO CLOUDS BELOW 12,000 FEET WITH NO 
SIGNIFICANT WEATHER AND/OR OBSTRUCTIONS TO VISIBILITY.

WAZ507-509-555>559-221300-
SEATTLE, TACOMA, EVERETT, AND VICINITY
  
CITY           SKY/WX    TMP DP  RH WIND       PRES   REMARKS
EVERETT        CLOUDY    47  39  74 SE10      30.25F                  
6HR MIN TEMP:  45; 6HR MAX TEMP:  47;                                

BOEING FIELD   CLOUDY    46  40  79 SE7       30.27F                  
6HR MIN TEMP:  44; 6HR MAX TEMP:  52;                                

RENTON         MOCLDY    45  41  86 SE5       30.27S                  
6HR MIN TEMP:  45; 6HR MAX TEMP:  53;                                

SEATAC AIRPORT CLOUDY    46  39  76 S5        30.26F                  
6HR MIN TEMP:  45; 6HR MAX TEMP:  51;                                

JBLM-MCCHORD   MOCLDY    42  42 100 CALM      30.27S                  
6HR MIN TEMP:  37; 6HR MAX TEMP:  49;                                

PUYALLUP       CLOUDY    39  39 100 CALM      30.27S                  
BREMERTON      PTCLDY    39  37  92 SW6       30.27F                  
6HR MIN TEMP:  37; 6HR MAX TEMP:  44;                                

JBLM-FT LEWIS  MOCLDY    40  40 100 CALM      30.27S                  
6HR MIN TEMP:  37; 6HR MAX TEMP:  48;                                

TACOMA NARROWS CLOUDY    43  40  89 S3        30.27S                  
6HR MIN TEMP:  43; 6HR MAX TEMP:  49;                                

$$
 
WAZ001-503-506-510-514-515-221300-
NORTH INTERIOR
  
CITY           SKY/WX    TMP DP  RH WIND       PRES   REMARKS
BELLINGHAM     CLOUDY    48  42  80 S5        30.24S                  
6HR MIN TEMP:  48; 6HR MAX TEMP:  51;                                

FRIDAY HARBOR  CLOUDY    48  42  80 S3        30.26S                  
6HR MIN TEMP:  48; 6HR MAX TEMP:  50;                                

EASTSOUND      CLOUDY    50  43  76 S7        30.24S                  
PORT ANGELES   CLOUDY    46  42  86 CALM      30.25S                  
6HR MIN TEMP:  46; 6HR MAX TEMP:  47;                                

EDIZ HOOK      CLOUDY    48  42  80 SW3       30.26S                  
6HR MIN TEMP:  47; 6HR MAX TEMP:  48;                                

PORT TOWNSEND  CLOUDY    43  41  93 CALM      30.25S                  
NAS WHIDBEY    CLOUDY    48  41  76 CALM      30.29S                  
6HR MIN TEMP:  46; 6HR MAX TEMP:  52;                                

ARLINGTON      NOT AVBL                                               
BURLINGTON       N/A    N/A N/A N/A MISG        N/A                   
$$
 
WAZ020-022-039-040-504-511-512-221300-
SOUTHWEST INTERIOR
  
CITY           SKY/WX    TMP DP  RH WIND       PRES   REMARKS
SHELTON        CLOUDY    43  38  82 SW3       30.25F                  
6HR MIN TEMP:  37; 6HR MAX TEMP:  46;                                

OLYMPIA        MOCLDY    40  38  93 CALM      30.28S                  
6HR MIN TEMP:  37; 6HR MAX TEMP:  45;                                

CHEHALIS       CLOUDY    41  41 100 CALM      30.28S                  
KELSO          MOCLDY    40  39  97 CALM      30.30F                  
6HR MIN TEMP:  39; 6HR MAX TEMP:  47;                                

VANCOUVER      CLEAR     42  39  89 CALM      30.29S                  
6HR MIN TEMP:  41; 6HR MAX TEMP:  51;                                

SCAPPOOSE, OR  CLEAR     41  38  89 CALM      30.29S                  
6HR MIN TEMP:  41; 6HR MAX TEMP:  50;                                

PORTLAND, OR   PTCLDY    44  40  85 CALM      30.30S                  
6HR MIN TEMP:  43; 6HR MAX TEMP:  53;                                

$$
 
WAZ021-516-517-221300-
WASHINGTON COAST
  
CITY           SKY/WX    TMP DP  RH WIND       PRES   REMARKS
FORKS          CLOUDY    47  42  83 SE6       30.25R                  
6HR MIN TEMP:  45; 6HR MAX TEMP:  47;                                

HOQUIAM        CLOUDY    45  43  93 E5        30.29S                  
6HR MIN TEMP:  44; 6HR MAX TEMP:  47;                                

ASTORIA, OR    MOCLDY    42  39  89 SE5       30.29R                  
6HR MIN TEMP:  40; 6HR MAX TEMP:  44;                                

$$
 
WAZ019-023-024-040-567>569-221300-
CASCADE MOUNTAINS AND COLUMBIA GORGE
  
CITY           SKY/WX    TMP DP  RH WIND       PRES   REMARKS
STAMPEDE PASS  CLEAR     37  33  85 W3        30.22S                  
6HR MIN TEMP:  36; 6HR MAX TEMP:  38;                                

TROUTDALE, OR  CLEAR     40  37  89 E6        30.30S                  
6HR MIN TEMP:  40; 6HR MAX TEMP:  50;                                

HOOD RIVER, OR SUNNY     39  34  81 MISG      30.25F                  
THE DALLES, OR CLEAR     39  34  82 S5        30.24S                  
6HR MIN TEMP:  39; 6HR MAX TEMP:  53;                                

$$

WAZ026-027-041>044-520-521-221300-
EAST SLOPES
  
CITY           SKY/WX    TMP DP  RH WIND       PRES   REMARKS
OMAK           PTCLDY    39  25  57 N3        30.16F                  
6HR MIN TEMP:  38; 6HR MAX TEMP:  55;                                

WENATCHEE      CLEAR     48  35  60 NW9       30.17F                  
6HR MIN TEMP:  47; 6HR MAX TEMP:  55;                                

ELLENSBURG     CLEAR     41  33  73 VRB6      30.19F                  
6HR MIN TEMP:  41; 6HR MAX TEMP:  50;                                

YAKIMA         CLEAR     45  35  68 SW7       30.20F                  
6HR MIN TEMP:  43; 6HR MAX TEMP:  57;                                

SUNNYSIDE ARPT SUNNY     37  36  97 N3        30.20F                  
6HR MIN TEMP:  38; 6HR MAX TEMP:  51;                                

YAKIMA TC      FAIR      40  32  75 NE8       30.18F                  
6HR MIN TEMP:  40; 6HR MAX TEMP:  52;                                

$$

WAZ028-034-035-221300-
COLUMBIA BASIN
  
CITY           SKY/WX    TMP DP  RH WIND       PRES   REMARKS
EPHRATA        CLEAR     40  36  86 N6        30.18R                  
6HR MIN TEMP:  39; 6HR MAX TEMP:  56;                                

MOSES LAKE     CLEAR     42  32  67 SE3       30.18S                  
6HR MIN TEMP:  42; 6HR MAX TEMP:  58;                                

PASCO          CLEAR     53  40  61 SW12      30.21S                  
6HR MIN TEMP:  50; 6HR MAX TEMP:  56;                                

RICHLAND ARPT  SUNNY     48  41  76 SW3       30.20F                  
6HR MIN TEMP:  44; 6HR MAX TEMP:  58;                                

HERMISTON, OR  CLEAR     42  38  85 SE5       30.22F                  
6HR MIN TEMP:  42; 6HR MAX TEMP:  51;                                

$$

WAZ036>038-221300-
NORTHEAST WASHINGTON
  
CITY           SKY/WX    TMP DP  RH WIND       PRES   REMARKS
SPOKANE GEIGER PTCLDY    42  33  70 S9        30.20F                  
6HR MIN TEMP:  42; 6HR MAX TEMP:  53;                                

SPOKANE FELTS  CLEAR     41  34  76 N3        30.22S                  
6HR MIN TEMP:  41; 6HR MAX TEMP:  47;                                

FAIRCHILD AFB  CLEAR     40  38  94 SE3       30.19F                  
6HR MIN TEMP:  40; 6HR MAX TEMP:  49;                                

COEURDALENE,ID CLEAR     41  36  82 CALM      30.23S                  
6HR MIN TEMP:  40; 6HR MAX TEMP:  49;                                

DEER PARK      CLEAR     34  30  85 CALM      30.21S                  
6HR MIN TEMP:  32; 6HR MAX TEMP:  46;                                

$$

WAZ029>033-221300-
SOUTHEAST WASHINGTON
  
CITY           SKY/WX    TMP DP  RH WIND       PRES   REMARKS
PULLMAN        CLEAR     40  33  76 E3        30.24S                  
6HR MIN TEMP:  39; 6HR MAX TEMP:  45;                                

LEWISTON, ID   CLEAR     43  36  76 CALM      30.24S                  
6HR MIN TEMP:  43; 6HR MAX TEMP:  54;                                

WALLA WALLA    CLEAR     47  36  65 SE7       30.22S                  
6HR MIN TEMP:  44; 6HR MAX TEMP:  52;                                

PENDLETON, OR  CLEAR     42  36  79 SE9       30.22F                  
6HR MIN TEMP:  40; 6HR MAX TEMP:  49;                                

$$